| time (UTC) | temp C | wind direction | speed KPH | gust KPH | rain 1hr cm | rain 24hr cm | rain mn cm | humidity % | barometer mb |
| 20260502183521 | 16 | 0.0 | 1.6 | 0.00 | 0.00 | 0.00 | 65 | 1015.1 | |
| 20260502182522 | 15 | 0.0 | 3.2 | 0.00 | 0.00 | 0.00 | 68 | 1015.2 | |
| 20260502181522 | 15 | 0.0 | 3.2 | 0.00 | 0.00 | 0.00 | 67 | 1015.4 | |
| 20260502180522 | 15 | 0.0 | 4.8 | 0.00 | 0.00 | 0.00 | 66 | 1015.4 | |
| 20260502163522 | 14 | 0.0 | 3.2 | 0.00 | 0.00 | 0.00 | 78 | 1016.2 | |
| 20260502162521 | 13 | 0.0 | 1.6 | 0.00 | 0.00 | 0.00 | 78 | 1016.7 | |
| 20260502161522 | 13 | 0.0 | 0.0 | 0.00 | 0.00 | 0.00 | 79 | 1016.9 | |
| 20260502160522 | 13 | 0.0 | 1.6 | 0.00 | 0.00 | 0.00 | 80 | 1017.0 | |
| 20260502151521 | 13 | 0.0 | 1.6 | 0.00 | 0.00 | 0.00 | 79 | 1016.5 | |
| 20260502150521 | 13 | 0.0 | 1.6 | 0.00 | 0.00 | 0.00 | 79 | 1016.6 | |
| 20260502130521 | 12 | 0.0 | 1.6 | 0.00 | 0.00 | 0.00 | 77 | 1016.0 | |
| 20260502123521 | 12 | 0.0 | 0.0 | 0.00 | 0.00 | 0.00 | 78 | 1015.9 | |
| 20260502122521 | 12 | 0.0 | 1.6 | 0.00 | 0.00 | 0.00 | 79 | 1016.0 | |
| 20260502121541 | 12 | 0.0 | 1.6 | 0.00 | 0.00 | 0.00 | 79 | 1015.6 | |
| 20260502120521 | 12 | 0.0 | 1.6 | 0.00 | 0.00 | 0.00 | 80 | 1015.5 | |
| 20260502115021 | 12 | 0.0 | 1.6 | 0.00 | 0.00 | 0.00 | 81 | 1015.7 | |
| 20260502114021 | 12 | 0.0 | 0.0 | 0.00 | 0.00 | 0.00 | 82 | 1015.8 | |
| 20260502113102 | 11 | 0.0 | 1.6 | 0.00 | 0.00 | 0.00 | 82 | 1015.7 | |
| 20260502112021 | 12 | 0.0 | 0.0 | 0.00 | 0.00 | 0.00 | 83 | 1015.6 | |
| 20260502111021 | 12 | 0.0 | 0.0 | 0.00 | 0.00 | 0.00 | 84 | 1015.9 | |
| 20260502110021 | 12 | 0.0 | 0.0 | 0.00 | 0.00 | 0.00 | 83 | 1015.9 | |
| 20260502105541 | 12 | 0.0 | 0.0 | 0.00 | 0.00 | 0.00 | 83 | 1015.8 | |
| 20260502104541 | 12 | 0.0 | 1.6 | 0.00 | 0.00 | 0.00 | 82 | 1016.0 | |
| 20260502103521 | 12 | 0.0 | 1.6 | 0.00 | 0.00 | 0.00 | 80 | 1015.8 | |
| 20260502102521 | 12 | 0.0 | 1.6 | 0.00 | 0.00 | 0.00 | 81 | 1015.9 | |
| 20260502101521 | 12 | 0.0 | 3.2 | 0.00 | 0.00 | 0.00 | 82 | 1016.0 | |
| 20260502100521 | 12 | 0.0 | 4.8 | 0.00 | 0.00 | 0.00 | 84 | 1016.2 | |
| 20260502091521 | 12 | 0.0 | 1.6 | 0.00 | 0.00 | 0.00 | 87 | 1016.0 | |
| 20260502090541 | 12 | 0.0 | 1.6 | 0.00 | 0.00 | 0.00 | 87 | 1015.9 | |
| 20260502070541 | 12 | 0.0 | 0.0 | 0.00 | 0.00 | 0.00 | 87 | 1015.2 | |
| 20260502065520 | 12 | 0.0 | 0.0 | 0.00 | 0.00 | 0.00 | 88 | 1015.2 | |
| 20260502064521 | 11 | 0.0 | 0.0 | 0.00 | 0.00 | 0.00 | 88 | 1015.4 | |
| 20260502063521 | 12 | 0.0 | 1.6 | 0.00 | 0.00 | 0.00 | 88 | 1015.2 | |
| 20260502062521 | 12 | 0.0 | 0.0 | 0.00 | 0.00 | 0.00 | 87 | 1015.2 | |
| 20260502061520 | 12 | 0.0 | 1.6 | 0.00 | 0.00 | 0.00 | 88 | 1015.3 | |
| 20260502060520 | 12 | 0.0 | 0.0 | 0.00 | 0.00 | 0.00 | 88 | 1015.3 | |
| 20260502055521 | 12 | 0.0 | 0.0 | 0.00 | 0.00 | 0.00 | 88 | 1015.2 | |
| 20260502054502 | 12 | 0.0 | 1.6 | 0.00 | 0.00 | 0.00 | 88 | 1015.6 | |
| 20260502054021 | 12 | 0.0 | 1.6 | 0.00 | 0.00 | 0.00 | 88 | 1015.5 | |
| 20260502053020 | 12 | 0.0 | 1.6 | 0.00 | 0.00 | 0.00 | 88 | 1015.6 | |
| 20260502052020 | 12 | 0.0 | 0.0 | 0.00 | 0.00 | 0.00 | 88 | 1015.5 | |
| 20260502051020 | 12 | 0.0 | 0.0 | 0.00 | 0.00 | 0.00 | 88 | 1015.6 | |
| 20260502050021 | 12 | 0.0 | 1.6 | 0.00 | 0.00 | 0.00 | 88 | 1015.7 | |
| 20260502045141 | 12 | 0.0 | 0.0 | 0.00 | 0.00 | 0.00 | 88 | 1015.9 | |
| 20260502044020 | 12 | 0.0 | 0.0 | 0.00 | 0.00 | 0.00 | 88 | 1015.9 | |
| 20260502043020 | 12 | 0.0 | 0.0 | 0.00 | 0.00 | 0.00 | 88 | 1016.0 | |
| 20260502042022 | 12 | 0.0 | 0.0 | 0.00 | 0.00 | 0.00 | 88 | 1015.9 | |
| 20260502041041 | 12 | 0.0 | 0.0 | 0.00 | 0.00 | 0.00 | 88 | 1016.0 | |
| 20260502040022 | 12 | 0.0 | 1.6 | 0.00 | 0.00 | 0.00 | 88 | 1016.1 | |
| 20260502035522 | 12 | 0.0 | 0.0 | 0.00 | 0.00 | 0.00 | 88 | 1016.2 | |
| 20260502034521 | 12 | 0.0 | 0.0 | 0.00 | 0.00 | 0.00 | 88 | 1016.2 | |
| 20260502033521 | 12 | 0.0 | 0.0 | 0.00 | 0.00 | 0.00 | 87 | 1016.3 | |
| 20260502032540 | 12 | 0.0 | 0.0 | 0.00 | 0.00 | 0.00 | 87 | 1016.1 | |
| 20260502031522 | 12 | 0.0 | 1.6 | 0.00 | 0.00 | 0.00 | 87 | 1016.1 | |
| 20260502030522 | 12 | 0.0 | 0.0 | 0.00 | 0.00 | 0.00 | 86 | 1016.1 | |
| 20260502025632 | 12 | 0.0 | 0.0 | 0.00 | 0.00 | 0.00 | 85 | 1016.2 | |
| 20260502024520 | 12 | 0.0 | 0.0 | 0.00 | 0.00 | 0.00 | 85 | 1016.3 | |
| 20260502023542 | 12 | 0.0 | 1.6 | 0.00 | 0.00 | 0.00 | 84 | 1016.2 | |
| 20260502022522 | 12 | 0.0 | 1.6 | 0.00 | 0.00 | 0.00 | 84 | 1016.3 | |
| 20260502021540 | 12 | 0.0 | 1.6 | 0.00 | 0.00 | 0.00 | 83 | 1016.4 | |
| 20260502020520 | 12 | 0.0 | 0.0 | 0.00 | 0.00 | 0.00 | 82 | 1016.2 | |
| 20260502015523 | 12 | 0.0 | 0.0 | 0.00 | 0.00 | 0.00 | 82 | 1016.3 | |
| 20260502014522 | 13 | 0.0 | 1.6 | 0.00 | 0.00 | 0.00 | 81 | 1016.2 | |
| 20260502013542 | 13 | 0.0 | 3.2 | 0.00 | 0.00 | 0.00 | 80 | 1016.1 | |
| 20260502012522 | 13 | 0.0 | 1.6 | 0.00 | 0.00 | 0.00 | 79 | 1016.0 | |
| 20260502011522 | 13 | 0.0 | 0.0 | 0.00 | 0.00 | 0.00 | 78 | 1016.1 | |
| 20260502010522 | 13 | 0.0 | 0.0 | 0.00 | 0.00 | 0.00 | 77 | 1015.8 | |
| 20260502005522 | 13 | 0.0 | 1.6 | 0.00 | 0.00 | 0.00 | 77 | 1015.6 | |
| 20260502004522 | 13 | 0.0 | 3.2 | 0.00 | 0.00 | 0.00 | 76 | 1015.8 | |
| 20260502003522 | 13 | 0.0 | 1.6 | 0.00 | 0.00 | 0.00 | 75 | 1015.4 | |
| 20260502002522 | 13 | 0.0 | 1.6 | 0.00 | 0.00 | 0.00 | 74 | 1015.4 | |
| 20260502001523 | 13 | 0.0 | 3.2 | 0.00 | 0.00 | 0.00 | 74 | 1015.3 | |
| 20260502000522 | 13 | 0.0 | 1.6 | 0.00 | 0.00 | 0.00 | 73 | 1015.2 | |
| 20260501235522 | 14 | 0.0 | 1.6 | 0.00 | 0.00 | 0.00 | 73 | 1015.3 | |
| 20260501234522 | 14 | 45 | 1.6 | 3.2 | 0.00 | 0.00 | 0.00 | 73 | 1015.4 |
| 20260501234022 | 15 | 0.0 | 1.6 | 0.00 | 0.00 | 0.00 | 72 | 1015.4 | |
| 20260501233042 | 15 | 0.0 | 4.8 | 0.00 | 0.00 | 0.00 | 72 | 1015.3 | |
| 20260501232022 | 15 | 0.0 | 3.2 | 0.00 | 0.00 | 0.00 | 72 | 1015.2 | |
| 20260501231022 | 15 | 0.0 | 1.6 | 0.00 | 0.00 | 0.00 | 72 | 1015.2 | |
| 20260501230022 | 15 | 0.0 | 4.8 | 0.00 | 0.00 | 0.00 | 71 | 1015.1 | |
| 20260501225022 | 15 | 0.0 | 4.8 | 0.00 | 0.00 | 0.00 | 71 | 1015.1 | |
| 20260501224021 | 15 | 0.0 | 3.2 | 0.00 | 0.00 | 0.00 | 70 | 1015.3 | |
| 20260501223022 | 15 | 45 | 1.6 | 8.0 | 0.00 | 0.00 | 0.00 | 69 | 1015.4 |
| 20260501222022 | 16 | 68 | 1.6 | 8.0 | 0.00 | 0.00 | 0.00 | 67 | 1015.6 |
| 20260501221022 | 16 | 0.0 | 4.8 | 0.00 | 0.00 | 0.00 | 66 | 1015.5 | |
| 20260501220022 | 16 | 45 | 1.6 | 6.4 | 0.00 | 0.00 | 0.00 | 64 | 1015.6 |
| 20260501215022 | 17 | 0.0 | 4.8 | 0.00 | 0.00 | 0.00 | 63 | 1015.7 | |
| 20260501214021 | 17 | 68 | 1.6 | 8.0 | 0.00 | 0.00 | 0.00 | 63 | 1015.7 |
| 20260501213522 | 17 | 68 | 1.6 | 9.7 | 0.00 | 0.00 | 0.00 | 63 | 1015.7 |
| 20260501212022 | 17 | 248 | 1.6 | 6.4 | 0.00 | 0.00 | 0.00 | 62 | 1015.8 |
| 20260501211022 | 17 | 45 | 1.6 | 6.4 | 0.00 | 0.00 | 0.00 | 61 | 1015.7 |
| 20260501210021 | 17 | 45 | 1.6 | 9.7 | 0.00 | 0.00 | 0.00 | 59 | 1015.7 |
| 20260501205021 | 18 | 68 | 1.6 | 6.4 | 0.00 | 0.00 | 0.00 | 60 | 1015.8 |
| 20260501204022 | 18 | 248 | 1.6 | 11.3 | 0.00 | 0.00 | 0.00 | 57 | 1015.8 |
| 20260501203102 | 18 | 45 | 1.6 | 12.9 | 0.00 | 0.00 | 0.00 | 54 | 1015.8 |
| 20260501202021 | 18 | 90 | 1.6 | 4.8 | 0.00 | 0.00 | 0.00 | 53 | 1015.8 |
| 20260501201021 | 19 | 0.0 | 6.4 | 0.00 | 0.00 | 0.00 | 53 | 1016.1 | |
| 20260501200022 | 20 | 0.0 | 3.2 | 0.00 | 0.00 | 0.00 | 51 | 1016.3 | |
| 20260501195022 | 20 | 0.0 | 4.8 | 0.00 | 0.00 | 0.00 | 50 | 1016.3 | |
| 20260501194021 | 19 | 45 | 1.6 | 6.4 | 0.00 | 0.00 | 0.00 | 51 | 1016.4 |
| 20260501193021 | 20 | 90 | 1.6 | 6.4 | 0.00 | 0.00 | 0.00 | 50 | 1016.4 |
| 20260501192022 | 20 | 45 | 1.6 | 4.8 | 0.00 | 0.00 | 0.00 | 50 | 1016.4 |
| 20260501191022 | 20 | 45 | 1.6 | 8.0 | 0.00 | 0.00 | 0.00 | 49 | 1016.5 |
| 20260501190021 | 20 | 0.0 | 1.6 | 0.00 | 0.00 | 0.00 | 48 | 1016.8 | |
| 20260501185022 | 20 | 45 | 1.6 | 6.4 | 0.00 | 0.00 | 0.00 | 46 | 1016.8 |
| 20260501184022 | 20 | 68 | 1.6 | 6.4 | 0.00 | 0.00 | 0.00 | 45 | 1017.1 |